Terminal Aerodrome Forecast
Issued by NWS

Home | Current Version | Previous Version | Graphics & Text | Print | Product List | Glossary On
Versions: 1 2 3 4 5 6 7 8 9 10 11 12 13 14 15 16 17 18 19 20 21
000
FTUS43 KABR 171600 AAE
TAFPIR
TAF AMD
KPIR 171603Z 1716/1812 VRB06KT P6SM VCTS SCT025 BKN060CB OVC200
      TEMPO 1716/1718 VRB25G40KT 1SM +TSRAGS BR BKN025 OVC060CB
     FM171800 14006KT P6SM SCT020 BKN060
     FM180000 18006KT P6SM VCTS BKN040CB
     FM180400 32006KT P6SM SKC=

USA.gov is the U.S. government's official web portal to all federal, state and local government web resources and services.